Regional Weather Roundup
Issued by NWS Lake Charles, LA

Home | Current Version | Previous Version | Text Only | Print | Product List | Glossary On
Versions: 1 2 3 4 5 6 7 8 9 10 11 12 13 14 15 16 17 18 19 20 21 22 23 24 25 26 27 28 29 30 31 32 33 34 35 36 37 38 39 40 41 42 43 44 45 46 47 48 49 50
000
ASUS44 KLCH 012010
RWRLCH
REGIONAL WEATHER ROUNDUP
NATIONAL WEATHER SERVICE LAKE CHARLES LA
300 PM CDT SAT OCT 01 2016

Note: "fair" indicates few or no clouds below 12,000 feet with no
significant weather and/or obstructions to visibility.


ACROSS SOUTHEAST TEXAS

CITY           SKY/WX    TMP DP  RH WIND       PRES   REMARKS
BEAUMONT       MOSUNNY   82  55  39 NE5       30.02F
BEAUMONT CITY  FAIR      81  52  36 N5        30.03F
ORANGE         PTCLDY    82  48  30 N5        30.04F
JASPER         SUNNY     82  56  40 W6        30.06F
$$

ACROSS CENTRAL LOUISIANA

CITY           SKY/WX    TMP DP  RH WIND       PRES   REMARKS
LEESVILLE      SUNNY     78  56  45 VRB2      30.03F
FULLERTON      FAIR      82  55  39 VRB3      30.02F
ALEXANDRIA INT MOSUNNY   81  53  37 E7        30.02F
ESLER FIELD    SUNNY     83  55  38 NE7       30.04F
DERIDDER       FAIR      81  52  37 N3        30.06F
OAKDALE        CLEAR     80  55  42 N5        30.04F
OPELOUSAS      FAIR      80  55  42 CALM      30.03F
$$

ACROSS SOUTHWEST AND SOUTH CENTRAL LOUISIANA

CITY           SKY/WX    TMP DP  RH WIND       PRES   REMARKS
SULPHUR        CLEAR     83  52  34 E3        30.04F
LAKE CHARLES   SUNNY     81  55  40 E5        30.02F
CHENNAULT INT  MOSUNNY   84  57  39 VRB5      30.03F
CAMERON PHI    CLEAR     81  55  41 E7        30.02F
DEQUINCY       FAIR      81  55  41 N5        30.04F
JENNINGS       FAIR      82  56  40 NE9       30.03F
LAFAYETTE      MOSUNNY   82  57  42 E5        30.03F
NEW IBERIA     SUNNY     84  55  36 NE8       30.03F
ABBEVILLE      FAIR      82  57  42 NE5       30.03F
PATTERSON      SUNNY     82  60  47 NE8       30.03F
SALT POINT     NOT AVBL
$$

SELECTED SITES ACROSS THE REGION

CITY           SKY/WX    TMP DP  RH WIND       PRES   REMARKS
HOUSTON BUSH   CLOUDY    81  58  45 NE8       30.04F
HOUSTON HOBBY  PTSUNNY   81  59  47 CALM      30.02F
GALVESTON      CLOUDY    81  63  54 NE13      30.03F
COLLEGE STAT   PTSUNNY   76  56  49 W3        30.06F
CONROE         CLOUDY    80  55  42 SE7       30.04F
HUNTSVILLE     CLOUDY    77  54  44 SW5       30.05F
LUFKIN         PTSUNNY   78  56  46 NW3       30.04F
SHREVEPORT     CLOUDY    82  56  40 S6        30.04F
MONROE         MOSUNNY   80  57  45 NW5       30.05F
NATCHEZ MS     MOSUNNY   77  55  47 N5        30.05F
BATON ROUGE    MOSUNNY   83  56  39 N6        30.03F
N.O. INTL ARPT PTSUNNY   85  57  38 VRB5      30.03F
SLIDELL        PTSUNNY   82  57  42 N6        30.02F
$$

MARINE REPORTS

STATION/POSITION TIME  SKY/WX   TEMP    WIND        PRES    VSBY
                                AIR SEA DIR/SP/G
                 (UTC)          (F)     (DEG/KT/KT) (MB)    (MI)
BUOY 30 S HIGH I 1950            78 84   50/ 12/ 16 1016.7F
WVE H/P(F/S)=  2/ 4

SEA RIM ST PARK  1900            79     100/ 10/ 14 1017.7F
PORT ARTHUR      1900               83   90/  5/  8 1017.5F
SABINE PASS N    1900            79 81  100/  4/  7 1018.6F
TEXAS POINT      NOT AVBL
CALCASIEU PASS   1900            78 78   40/  7/  8   N/A
LK CHARLES BEACH 1900            79 81              1017.9F
MARSH ISLAND     1900            77                   N/A
FRESH WATER LOCK 1912            80 79   20/  6/  8 1017.8F
AMERADA PASS     1900            80 81   50/  4/  7 1017.0F
$$



USA.gov is the U.S. government's official web portal to all federal, state and local government web resources and services.